Weather History for Salina, KS

Change the Weather History Date:

Sunday, April 7, 2013

  Actual Average Record
Temperature  
Mean Temperature 61 °F 52 °F  
Max Temperature 78 °F 64 °F 87 °F (1908)
Min Temperature 43 °F 40 °F 17 °F (2009)
Degree Days  
Heating Degree Days 4 13  
Month to date heating degree days 102 97  
Since 1 July heating degree days 4446 4547  
Cooling Degree Days 0 0  
Month to date cooling degree days 0 0  
Year to date cooling degree days 0 2  
Growing Degree Days 10 (Base 50)    
Moisture  
Dew Point 47 °F    
Average Humidity 60    
Maximum Humidity 93    
Minimum Humidity 27    
Precipitation  
Precipitation T in 0.09 in 0.86 in (1976)
Month to date precipitation T 0.64  
Year to date precipitation 3.89 4.83  
Sea Level Pressure  
Sea Level Pressure 29.73 in    
Wind  
Wind Speed 11 mph (SSE)    
Max Wind Speed 26 mph    
Max Gust Speed 32 mph    
Visibility 9 miles    
Events      
T = Trace of Precipitation, MM = Missing Value Source: NWS Daily Summary

Daily Weather History Graph

Daily Weather History Graph

Search for Another Location

Airport:

Trip Planner

Search our weather history database for the weather conditions in past years. The results will help you decide how hot, cold, wet, or windy it might be!

Date:

Astronomy

Apr. 07, 2013 Rise Set
Actual Time 7:05 AM CDT 8:00 PM CDT
Civil Twilight 6:38 AM CDT 8:27 PM CDT
Nautical Twilight 6:06 AM CDT 8:59 PM CDT
Astronomical Twilight 5:33 AM CDT 9:32 PM CDT
Moon 5:22 AM CDT (4/7) 5:34 PM CDT (4/7)
Length of Visible Light 13h 48m
Length of Day
12h 54m
Waning Crescent, 8% of the Moon is Illuminated
Apr 7
Waning Crescent
Apr 10
New
Apr 18
First Quarter
Apr 25
Full
May 2
Last Quarter

Hourly Weather History & Observations

Time (CDT) Temp. Windchill Dew Point Humidity Pressure Visibility Wind Dir Wind Speed Gust Speed Precip Events Conditions
12:53 AM 46.9 °F - 39.9 °F 77% 29.83 in 10.0 mi SSW 9.2 mph - N/A   Clear
1:53 AM 48.9 °F - 39.9 °F 71% 29.83 in 10.0 mi South 9.2 mph - N/A   Clear
2:53 AM 46.9 °F - 39.9 °F 77% 29.82 in 10.0 mi South 4.6 mph - N/A   Clear
3:53 AM 45.0 °F 41.8 °F 39.9 °F 82% 29.81 in 10.0 mi South 5.8 mph - N/A   Clear
4:53 AM 46.9 °F - 41.0 °F 80% 29.80 in 10.0 mi SSE 6.9 mph - N/A   Clear
5:53 AM 48.9 °F - 42.1 °F 77% 29.80 in 10.0 mi South 6.9 mph - N/A   Clear
6:53 AM 51.1 °F - 43.0 °F 74% 29.80 in 10.0 mi South 8.1 mph - N/A   Clear
7:53 AM 53.1 °F - 44.1 °F 71% 29.81 in 10.0 mi South 6.9 mph - N/A   Mostly Cloudy
8:53 AM 64.0 °F - 41.0 °F 43% 29.83 in 10.0 mi South 8.1 mph - 0.00 in   Mostly Cloudy
9:53 AM 70.0 °F - 43.0 °F 38% 29.80 in 10.0 mi East 3.5 mph - N/A   Mostly Cloudy
10:53 AM 71.1 °F - 45.0 °F 39% 29.79 in 10.0 mi SSE 10.4 mph - N/A   Partly Cloudy
11:53 AM 73.0 °F - 43.0 °F 34% 29.77 in 10.0 mi ESE 12.7 mph - N/A   Partly Cloudy
12:53 PM 73.9 °F - 48.9 °F 41% 29.76 in 10.0 mi South 17.3 mph 24.2 mph N/A   Scattered Clouds
1:53 PM 75.0 °F - 46.9 °F 37% 29.72 in 10.0 mi SSE 19.6 mph 29.9 mph N/A   Clear
2:53 PM 75.9 °F - 46.0 °F 35% 29.68 in 10.0 mi SE 18.4 mph 25.3 mph N/A   Clear
3:53 PM 75.9 °F - 39.9 °F 27% 29.64 in 10.0 mi SSE 17.3 mph 27.6 mph N/A   Scattered Clouds
4:53 PM 73.0 °F - 46.9 °F 39% 29.62 in 10.0 mi South 18.4 mph 28.8 mph N/A   Overcast
5:53 PM 69.1 °F - 55.0 °F 61% 29.62 in 10.0 mi South 17.3 mph 28.8 mph N/A   Overcast
6:53 PM 66.9 °F - 55.0 °F 66% 29.61 in 10.0 mi South 17.3 mph 25.3 mph N/A   Mostly Cloudy
7:53 PM 64.0 °F - 55.9 °F 75% 29.62 in 10.0 mi South 13.8 mph - N/A   Overcast
8:53 PM 63.0 °F - 57.0 °F 81% 29.62 in 9.0 mi South 8.1 mph - N/A   Mostly Cloudy
9:16 PM 62.6 °F - 57.2 °F 82% 29.66 in 8.0 mi South 9.2 mph - N/A   Mostly Cloudy
9:53 PM 62.1 °F - 57.0 °F 84% 29.65 in 8.0 mi South 8.1 mph - N/A   Overcast
10:53 PM 59.0 °F - 55.9 °F 90% 29.65 in 6.0 mi South 6.9 mph - N/A   Mostly Cloudy
11:00 PM 59.0 °F - 55.4 °F 88% 29.68 in 6.0 mi South 6.9 mph - N/A   Clear
11:53 PM 57.9 °F - 55.0 °F 90% 29.65 in 5.0 mi South 8.1 mph - N/A   Clear